[[{"header":{"parameterUnit":"m.s-1","parameterCategory":1,"la1":30.2991,"la2":30.254,"lo1":-89.0895,"lo2":-89.0444,"dy":0.0017,"dx":0.0017,"nx":28,"ny":28,"refTime":"2026-01-07T09:00:00:Z","depth":0,"parameterNumber":2,"parameterNumberName":"U-component_of_WINDS"},"data":[0,0,0,0,0,0,0,0,0,0,0,0,0,0,0,0,0,0,0,0,0,0,0,0,0,0,0,0,0,0,0,0,0,0,0,0,0,0,0,0,0,0,0,0,0,0,0,0,0,0,0,0,0,0,0,0,0,0,-1.0237,-1.0236,0,-1.0189,-1.0188,-1.0188,-1.0137,-1.0136,-1.0136,-1.0135,-1.0085,-1.0085,-1.0084,0,0,0,0,0,0,0,0,0,0,0,0,0,-1.0282,-1.0281,-1.0237,-1.0236,-1.0235,-1.0189,-1.0188,-1.0188,-1.0137,-1.0136,-1.0135,-1.0135,-1.0086,-1.0085,-1.0084,0,0,0,0,0,0,0,0,0,0,0,0,0,-1.0251,-1.0281,-1.0237,-1.0205,-1.0201,-1.0189,-1.0188,-1.0188,-1.0137,-1.0136,-1.0135,-1.0134,-1.0086,-1.0085,-1.0084,-1.01,0,0,-1.0081,-1.0081,0,0,0,0,0,0,0,0,-1.0253,-1.025,-1.021,-1.0207,-1.0203,-1.0168,-1.0186,-1.0158,-1.0138,-1.0162,-1.0135,-1.0134,-1.0114,-1.011,-1.0104,-1.0097,-1.0095,-1.0081,-1.008,-1.008,-1.008,0,0,0,0,0,0,0,-1.0255,-1.0251,-1.0218,-1.0209,-1.0205,-1.0192,-1.0186,-1.0181,-1.0144,-1.0159,-1.0156,-1.0151,-1.0112,-1.0105,-1.0102,-1.0094,-1.0081,-1.008,-1.008,-1.0079,-1.0096,-1.0097,0,0,0,0,0,0,-1.0262,-1.0253,-1.0219,-1.0216,-1.0226,-1.0192,-1.0186,-1.018,-1.0144,-1.0138,-1.0152,-1.0149,-1.0107,-1.0103,-1.01,-1.0115,-1.008,-1.0079,-1.0079,-1.0095,-1.0096,-1.0097,0,0,0,0,0,0,-1.0264,-1.026,-1.0221,-1.0234,-1.0228,-1.0192,-1.0187,-1.018,-1.0173,-1.0138,-1.0131,-1.0152,-1.0106,-1.0102,-1.01,-1.0112,-1.0079,-1.0078,-1.0094,-1.0095,-1.0097,-1.0145,0,0,0,0,0,0,-1.0265,-1.0261,-1.0267,-1.0234,-1.0227,-1.0222,-1.0187,-1.018,-1.0172,-1.0167,-1.0136,-1.013,-1.0105,-1.0101,-1.0099,-1.011,-1.0077,-1.0092,-1.0094,-1.0096,-1.0142,-1.0148,-1.0153,0,0,0,0,0,-1.0267,-1.0282,-1.0267,-1.0263,-1.0234,-1.0223,-1.0219,-1.019,-1.0173,-1.0178,-1.0156,-1.0131,-1.0112,-1.0102,-1.0098,-1.011,-1.0091,-1.0094,-1.0096,-1.0139,-1.0146,-1.0152,0,0,0,0,0,0,-1.0317,-1.0278,-1.026,-1.0266,-1.0248,-1.0215,-1.022,-1.0198,-1.0185,-1.0181,-1.0145,-1.0139,-1.014,-1.0125,-1.0115,-1.0122,-1.0098,-1.01,-1.0132,-1.0138,-1.0144,-1.0147,-1.0076,0,0,0,0,0,-1.0329,-1.0323,-1.0289,-1.0297,-1.0289,-1.0256,-1.025,-1.0229,-1.0209,-1.0201,-1.0179,-1.016,-1.0149,-1.0143,-1.0131,-1.0139,-1.0131,-1.0145,-1.0151,-1.0155,-1.0157,-1.0158,-1.0164,-1.0105,-1.0105,-1.0105,0,0,-1.0353,-1.0331,-1.033,-1.0307,-1.029,-1.0285,-1.025,-1.0246,-1.0241,-1.0201,-1.0197,-1.018,-1.0156,-1.0159,-1.0159,-1.0146,-1.0171,-1.0158,-1.0162,-1.0161,-1.0161,-1.0167,-1.0172,-1.0106,-1.0106,-1.0106,0,0,-1.0394,-1.0377,-1.0381,-1.0365,-1.0341,-1.0319,-1.032,-1.0289,-1.0276,-1.0272,-1.0241,-1.0234,-1.0217,-1.0201,-1.0191,-1.0224,-1.02,-1.0221,-1.0249,-1.0251,-1.0255,-1.0259,-1.027,-1.0274,-1.0223,-1.0223,-1.0223,0,-1.0427,-1.0418,-1.0386,-1.0383,-1.0374,-1.0336,-1.034,-1.0326,-1.0299,-1.0293,-1.0279,-1.0255,-1.0237,-1.0234,-1.0242,-1.0235,-1.0234,-1.0224,-1.0257,-1.0261,-1.0264,-1.0274,-1.0278,-1.0226,-1.0226,-1.0225,-1.0225,0,-1.0459,-1.0453,-1.0459,-1.0434,-1.0424,-1.0425,-1.0393,-1.0387,-1.0366,-1.0345,-1.0341,-1.0317,-1.0299,-1.0297,-1.0277,-1.0291,-1.0284,-1.0264,-1.0239,-1.0273,-1.0281,-1.0285,-1.023,-1.0229,-1.0228,-1.0227,0,0,-1.053,-1.0487,-1.049,-1.0477,-1.0447,-1.0441,-1.0439,-1.0422,-1.0417,-1.0399,-1.0396,-1.0381,-1.0362,-1.0351,-1.0328,-1.033,-1.0356,-1.031,-1.0308,-1.0318,-1.0368,-1.0382,-1.0387,-1.034,-1.0341,-1.0341,-1.0369,0,-1.0565,-1.056,-1.0531,-1.0534,-1.0527,-1.049,-1.0488,-1.0469,-1.0449,-1.044,-1.0418,-1.0407,-1.0384,-1.0377,-1.0376,-1.0353,-1.0365,-1.035,-1.0335,-1.0335,-1.0341,-1.0391,-1.0407,-1.0434,-1.0372,-1.0373,-1.0373,0,-1.0605,-1.059,-1.0592,-1.056,-1.0556,-1.0555,-1.0536,-1.0528,-1.0505,-1.049,-1.0476,-1.0451,-1.0445,-1.0422,-1.0413,-1.0404,-1.0396,-1.0383,-1.0384,-1.038,-1.0356,-1.0388,-1.0442,-1.0446,-1.0378,-1.0378,-1.0377,0,-1.0656,-1.0636,-1.0634,-1.0624,-1.0588,-1.0587,-1.0572,-1.0548,-1.0539,-1.0522,-1.0515,-1.0498,-1.0488,-1.0474,-1.0444,-1.0431,-1.0438,-1.0413,-1.0425,-1.0425,-1.0427,-1.0428,-1.048,-1.0424,-1.0424,-1.0424,-1.0424,0,-1.0697,-1.07,-1.0656,-1.0655,-1.0656,-1.0622,-1.0623,-1.0604,-1.0583,-1.0576,-1.0544,-1.0539,-1.05,-1.049,-1.0466,-1.0461,-1.0457,-1.0444,-1.0438,-1.0447,-1.0448,-1.0441,-1.0437,-1.0425,-1.0425,-1.0425,-1.0424,0,-1.0754,-1.0725,-1.072,-1.0686,-1.0677,-1.0679,-1.0649,-1.0646,-1.0624,-1.0616,-1.0612,-1.0577,-1.0563,-1.0532,-1.0509,-1.0493,-1.0494,-1.0483,-1.0502,-1.0498,-1.051,-1.0509,-1.0559,-1.0563,-1.0506,-1.0506,-1.0507,0,-1.0782,-1.0783,-1.0748,-1.0742,-1.0728,-1.0718,-1.0708,-1.0674,-1.0665,-1.0638,-1.0637,-1.0621,-1.0606,-1.0585,-1.0557,-1.0539,-1.0527,-1.0545,-1.0524,-1.0532,-1.0525,-1.0525,-1.0524,-1.055,-1.0551,-1.0551,-1.0552,0,-1.0835,-1.082,-1.0807,-1.0789,-1.0778,-1.0762,-1.0744,-1.0741,-1.0702,-1.0693,-1.0679,-1.0667,-1.0644,-1.0627,-1.0605,-1.0588,-1.0563,-1.0559,-1.056,-1.0569,-1.0579,-1.0572,-1.0514,-1.0558,-1.0557,-1.0557,-1.0556,-1.0556,-1.0877,-1.0875,-1.085,-1.0837,-1.082,-1.0803,-1.0798,-1.0775,-1.0762,-1.0741,-1.0721,-1.0708,-1.0683,-1.065,-1.0635,-1.0623,-1.0611,-1.0613,-1.0614,-1.0614,-1.0618,-1.0582,-1.0619,-1.0619,-1.0618,-1.0618,-1.0618,0,-1.0927,-1.0908,-1.0896,-1.0872,-1.0861,-1.0839,-1.0818,-1.081,-1.0798,-1.0777,-1.0763,-1.0745,-1.0728,-1.0698,-1.0679,-1.0675,-1.0663,-1.0671,-1.067,-1.0666,-1.063,-1.0631,-1.0681,-1.0681,-1.0681,-1.068,-1.068,-1.068,-1.0951,-1.0947,-1.0929,-1.0915,-1.0896,-1.0883,-1.0873,-1.0857,-1.084,-1.0821,-1.0807,-1.0788,-1.0763,-1.074,-1.0724,-1.0715,-1.0709,-1.072,-1.0708,-1.0675,-1.0669,-1.0663,-1.0663,-1.0719,-1.0719,-1.0744,-1.0744,-1.0745]},{"header":{"parameterUnit":"m.s-1","parameterCategory":1,"la1":30.2991,"la2":30.254,"lo1":-89.0895,"lo2":-89.0444,"dy":0.0017,"dx":0.0017,"nx":28,"ny":28,"refTime":"2026-01-07T09:00:00:Z","depth":0,"parameterNumber":3,"parameterNumberName":"V-component_of_WINDS"},"data":[0,0,0,0,0,0,0,0,0,0,0,0,0,0,0,0,0,0,0,0,0,0,0,0,0,0,0,0,0,0,0,0,0,0,0,0,0,0,0,0,0,0,0,0,0,0,0,0,0,0,0,0,0,0,0,0,0,0,1.9944,1.9945,0,2.0062,2.0063,2.0065,2.0067,2.0065,2.0064,2.0062,2.0187,2.0192,2.0196,0,0,0,0,0,0,0,0,0,0,0,0,0,1.9725,1.9729,1.9943,1.9945,1.9946,2.0062,2.0063,2.0065,2.0067,2.0065,2.0063,2.0062,2.0186,2.0191,2.0197,0,0,0,0,0,0,0,0,0,0,0,0,0,1.9829,1.973,1.9943,1.9961,1.9964,2.0061,2.0063,2.0065,2.0067,2.0065,2.0063,2.0061,2.0184,2.0191,2.0198,2.0286,0,0,2.0219,2.0222,0,0,0,0,0,0,0,0,1.9823,1.9837,1.9957,1.996,1.9963,2.0047,2.0032,2.0139,2.0068,2.0028,2.0062,2.006,2.0143,2.0153,2.018,2.0292,2.0297,2.022,2.0224,2.0227,2.0229,0,0,0,0,0,0,0,1.9816,1.9832,1.999,1.9959,1.9963,1.9965,1.9978,2.0052,2.0097,2.0031,2.0032,2.0046,2.0144,2.0173,2.0183,2.0299,2.022,2.0226,2.023,2.0233,2.0494,2.0497,0,0,0,0,0,0,1.9804,1.9826,1.9987,1.9994,1.9886,1.9971,1.9985,2.0023,2.0096,2.0105,2.0047,2.0045,2.0162,2.0175,2.0187,2.0299,2.0227,2.0234,2.0238,2.0491,2.0495,2.0497,0,0,0,0,0,0,1.98,1.9819,1.9982,1.991,1.9931,1.9977,2.002,2.0026,2.0055,2.0108,2.0116,2.0069,2.0161,2.0177,2.0262,2.0304,2.0237,2.0243,2.0488,2.0492,2.0496,2.0521,0,0,0,0,0,0,1.9793,1.9817,1.985,1.9911,1.9935,2.0053,2.0022,2.003,2.0067,2.0066,2.013,2.0139,2.0161,2.0252,2.0269,2.0312,2.0249,2.0485,2.049,2.0495,2.0517,2.0526,2.0533,0,0,0,0,0,1.9785,1.9852,1.9851,1.9871,1.9976,2.0055,2.0069,2.0092,2.007,2.0105,2.0139,2.0137,2.0295,2.026,2.028,2.0326,2.0482,2.0488,2.0494,2.0514,2.0524,2.0533,0,0,0,0,0,0,1.9795,1.986,1.986,1.9948,1.9996,2.0055,2.0099,2.0102,2.0158,2.0154,2.0181,2.0195,2.0281,2.0311,2.0271,2.0417,2.0387,2.0397,2.0395,2.0405,2.0413,2.0405,2.0255,0,0,0,0,0,1.9806,1.9864,1.9918,1.9991,2.0015,2.0053,2.0088,2.0101,2.0153,2.0174,2.0214,2.0265,2.0327,2.0367,2.0427,2.0521,2.0538,2.0562,2.057,2.0577,2.0586,2.0643,2.0656,2.0517,2.0517,2.0517,0,0,1.9832,1.9875,1.991,1.9994,2.0032,2.0094,2.007,2.0134,2.0181,2.0184,2.0267,2.0298,2.0358,2.0449,2.0491,2.0477,2.0628,2.0584,2.0589,2.0595,2.0651,2.0664,2.0675,2.0521,2.0521,2.052,0,0,1.9911,1.9948,2.0014,2.0054,2.0113,2.0138,2.0154,2.0214,2.0235,2.0319,2.0323,2.038,2.0484,2.0528,2.0564,2.0662,2.0664,2.068,2.0724,2.0779,2.079,2.08,2.0839,2.0852,2.0689,2.0689,2.0689,0,1.9937,2.0027,2.0048,2.0114,2.0152,2.0157,2.0226,2.0264,2.034,2.0367,2.035,2.0484,2.0524,2.0628,2.0652,2.0679,2.0701,2.0674,2.0786,2.0796,2.0806,2.0844,2.0858,2.0691,2.0691,2.0691,2.0691,0,2.0057,2.012,2.0167,2.024,2.0284,2.035,2.0384,2.0426,2.0436,2.0464,2.0551,2.0599,2.0671,2.0695,2.0705,2.0802,2.0792,2.078,2.075,2.0821,2.0857,2.0871,2.0694,2.0693,2.0693,2.0692,0,0,2.0146,2.0231,2.0248,2.0283,2.035,2.04,2.0469,2.0538,2.0575,2.0627,2.0688,2.0778,2.0769,2.0809,2.0824,2.0872,2.0953,2.0855,2.0857,2.0875,2.1067,2.1078,2.1094,2.0953,2.0956,2.0958,2.1063,0,2.0235,2.0356,2.0378,2.0484,2.0545,2.0551,2.0612,2.0661,2.0689,2.0746,2.0778,2.0843,2.0823,2.0849,2.0896,2.0933,2.0992,2.0925,2.1014,2.1016,2.1002,2.1112,2.1124,2.1221,2.1077,2.1079,2.1081,0,2.0355,2.0411,2.0524,2.0586,2.0612,2.0665,2.0733,2.0786,2.0843,2.0861,2.0907,2.0918,2.0993,2.0958,2.1063,2.1017,2.1055,2.1079,2.1083,2.1095,2.1055,2.1131,2.1252,2.1268,2.1103,2.1101,2.11,0,2.0413,2.0516,2.0599,2.0628,2.0701,2.0739,2.0772,2.0826,2.0868,2.0927,2.0955,2.1021,2.1059,2.1112,2.1142,2.1113,2.1247,2.1213,2.1267,2.1267,2.1298,2.1296,2.143,2.1316,2.1315,2.1315,2.1315,0,2.0512,2.0582,2.0626,2.0677,2.0757,2.0782,2.0861,2.0893,2.0942,2.1001,2.101,2.1066,2.11,2.1161,2.1185,2.1272,2.1288,2.1307,2.1313,2.1308,2.1306,2.1335,2.1331,2.1319,2.1318,2.1317,2.1317,0,2.0591,2.0623,2.0714,2.0776,2.0793,2.085,2.0904,2.0955,2.0984,2.1059,2.1078,2.1124,2.1198,2.1232,2.1322,2.1339,2.1439,2.1438,2.1419,2.1423,2.1476,2.1472,2.1637,2.1661,2.1527,2.1528,2.1529,0,2.0654,2.0708,2.0777,2.0817,2.085,2.0914,2.0957,2.0984,2.1029,2.11,2.1143,2.1217,2.1277,2.1395,2.1438,2.1509,2.1513,2.1565,2.1524,2.1518,2.1519,2.1517,2.1525,2.1574,2.1575,2.1576,2.1577,0,2.0764,2.0778,2.0838,2.0905,2.0956,2.101,2.1063,2.1096,2.1133,2.1183,2.1258,2.1305,2.1398,2.1473,2.1547,2.1583,2.1589,2.159,2.1607,2.1604,2.1593,2.1604,2.1444,2.1587,2.1586,2.1585,2.1584,2.1584,2.084,2.089,2.0947,2.1015,2.1058,2.1108,2.1161,2.1196,2.1259,2.1336,2.1349,2.143,2.149,2.1589,2.1628,2.1694,2.1682,2.1706,2.1712,2.1719,2.1724,2.1579,2.1707,2.1707,2.1707,2.1707,2.1706,0,2.0954,2.0991,2.1053,2.1128,2.1183,2.118,2.124,2.1287,2.1358,2.1411,2.1471,2.156,2.1633,2.1682,2.1757,2.1801,2.1805,2.182,2.1819,2.1828,2.1728,2.1708,2.1815,2.1815,2.1815,2.1815,2.1815,2.1815,2.1019,2.1105,2.1126,2.1235,2.1272,2.1351,2.1386,2.1434,2.1477,2.1575,2.1636,2.1667,2.1721,2.18,2.1868,2.1881,2.191,2.1926,2.1939,2.1846,2.1834,2.1824,2.1805,2.1931,2.1931,2.2034,2.2035,2.2036]}]]